Time,TemperatureF,DewpointF,PressureIn,WindDirection,WindDirectionDegrees,WindSpeedMPH,WindSpeedGustMPH,Humidity,HourlyPrecipIn,Conditions,Clouds,dailyrainin,SolarRadiationWatts/m^2,SoftwareType,DateUTC
2013-03-31 00:00:00,55.4,52.2,30.04,ENE,68,0.0,-999.0,89,0.02,,,0.13,0,Wunderground v.1.15,2013-03-31 07:00:00,
2013-03-31 00:05:00,55.4,52.2,30.04,ENE,68,0.0,-999.0,89,0.02,,,0.13,0,Wunderground v.1.15,2013-03-31 07:05:00,
2013-03-31 00:10:00,55.4,52.2,30.04,ENE,68,0.0,-999.0,89,0.02,,,0.13,0,Wunderground v.1.15,2013-03-31 07:10:00,
2013-03-31 00:15:00,55.4,52.2,30.04,ENE,68,0.0,-999.0,89,0.01,,,0.13,0,Wunderground v.1.15,2013-03-31 07:15:00,
2013-03-31 00:20:00,55.4,52.2,30.04,ENE,68,0.0,-999.0,89,0.01,,,0.13,0,Wunderground v.1.15,2013-03-31 07:20:00,
2013-03-31 00:25:00,55.4,52.2,30.04,ENE,68,0.0,-999.0,89,0.01,,,0.13,0,Wunderground v.1.15,2013-03-31 07:25:00,
2013-03-31 00:30:00,55.4,52.2,30.04,ENE,68,0.0,-999.0,89,0.01,,,0.13,0,Wunderground v.1.15,2013-03-31 07:30:00,
2013-03-31 00:35:00,55.4,52.2,30.04,ENE,68,0.0,-999.0,89,0.01,,,0.13,0,Wunderground v.1.15,2013-03-31 07:35:00,
2013-03-31 00:40:00,55.4,52.2,30.04,ENE,68,0.0,-999.0,89,0.01,,,0.13,0,Wunderground v.1.15,2013-03-31 07:40:00,
2013-03-31 00:45:00,55.8,52.3,30.02,ENE,68,1.0,-999.0,88,0.02,,,0.13,0,Wunderground v.1.15,2013-03-31 07:45:00,
2013-03-31 00:50:00,55.8,52.3,30.02,ENE,68,1.0,-999.0,88,0.02,,,0.13,0,Wunderground v.1.15,2013-03-31 07:50:00,
2013-03-31 00:55:00,55.8,52.3,30.02,ENE,68,1.0,-999.0,88,0.02,,,0.13,0,Wunderground v.1.15,2013-03-31 07:55:00,
2013-03-31 01:00:00,55.8,52.3,30.02,ENE,68,1.0,-999.0,88,0.01,,,0.13,0,Wunderground v.1.15,2013-03-31 08:00:00,
2013-03-31 01:05:00,55.8,52.3,30.02,ENE,68,1.0,-999.0,88,0.01,,,0.13,0,Wunderground v.1.15,2013-03-31 08:05:00,
2013-03-31 01:10:00,55.8,52.3,30.02,ENE,68,1.0,-999.0,88,0.01,,,0.13,0,Wunderground v.1.15,2013-03-31 08:10:00,
2013-03-31 01:15:00,55.5,52.3,30.02,NNE,23,0.0,-999.0,89,0.02,,,0.13,0,Wunderground v.1.15,2013-03-31 08:15:00,
2013-03-31 01:20:00,55.5,52.3,30.02,NNE,23,0.0,-999.0,89,0.02,,,0.13,0,Wunderground v.1.15,2013-03-31 08:20:00,
2013-03-31 01:25:00,55.5,52.3,30.02,NNE,23,0.0,-999.0,89,0.02,,,0.13,0,Wunderground v.1.15,2013-03-31 08:25:00,
2013-03-31 01:30:00,55.5,52.3,30.02,NNE,23,0.0,-999.0,89,0.02,,,0.13,0,Wunderground v.1.15,2013-03-31 08:30:00,
2013-03-31 01:35:00,55.5,52.3,30.02,NNE,23,0.0,-999.0,89,0.02,,,0.13,0,Wunderground v.1.15,2013-03-31 08:35:00,
2013-03-31 01:40:00,55.5,52.3,30.02,NNE,23,0.0,-999.0,89,0.02,,,0.13,0,Wunderground v.1.15,2013-03-31 08:40:00,
2013-03-31 01:45:00,55.2,52.0,30.02,NNE,23,0.0,-999.0,89,0.01,,,0.13,0,Wunderground v.1.15,2013-03-31 08:45:00,
2013-03-31 01:50:00,55.2,52.0,30.02,NNE,23,0.0,-999.0,89,0.01,,,0.13,0,Wunderground v.1.15,2013-03-31 08:50:00,
2013-03-31 01:55:00,55.2,52.0,30.02,NNE,23,0.0,-999.0,89,0.01,,,0.13,0,Wunderground v.1.15,2013-03-31 08:55:00,
2013-03-31 02:00:00,55.2,52.0,30.02,NNE,23,0.0,-999.0,89,0.01,,,0.13,0,Wunderground v.1.15,2013-03-31 09:00:00,
2013-03-31 02:05:00,55.2,52.0,30.02,NNE,23,0.0,-999.0,89,0.01,,,0.13,0,Wunderground v.1.15,2013-03-31 09:05:00,
2013-03-31 02:10:00,55.2,52.0,30.02,NNE,23,0.0,-999.0,89,0.01,,,0.13,0,Wunderground v.1.15,2013-03-31 09:10:00,
2013-03-31 02:15:00,54.8,51.9,30.03,NNE,23,0.0,-999.0,90,0.00,,,0.13,0,Wunderground v.1.15,2013-03-31 09:15:00,
2013-03-31 02:20:00,54.8,51.9,30.03,NNE,23,0.0,-999.0,90,0.00,,,0.13,0,Wunderground v.1.15,2013-03-31 09:20:00,
2013-03-31 02:25:00,54.8,51.9,30.03,NNE,23,0.0,-999.0,90,0.00,,,0.13,0,Wunderground v.1.15,2013-03-31 09:25:00,
2013-03-31 02:30:00,54.8,51.9,30.03,NNE,23,0.0,-999.0,90,0.00,,,0.13,0,Wunderground v.1.15,2013-03-31 09:30:00,
2013-03-31 02:35:00,54.8,51.9,30.03,NNE,23,0.0,-999.0,90,0.00,,,0.13,0,Wunderground v.1.15,2013-03-31 09:35:00,
2013-03-31 02:40:00,54.8,51.9,30.03,NNE,23,0.0,-999.0,90,0.00,,,0.13,0,Wunderground v.1.15,2013-03-31 09:40:00,
2013-03-31 02:45:00,54.9,52.0,30.04,NNE,23,0.0,-999.0,90,0.00,,,0.13,0,Wunderground v.1.15,2013-03-31 09:45:00,
2013-03-31 02:50:00,54.9,52.0,30.04,NNE,23,0.0,-999.0,90,0.00,,,0.13,0,Wunderground v.1.15,2013-03-31 09:50:00,
2013-03-31 02:55:00,54.9,52.0,30.04,NNE,23,0.0,-999.0,90,0.00,,,0.13,0,Wunderground v.1.15,2013-03-31 09:55:00,
2013-03-31 03:00:00,54.9,52.0,30.04,NNE,23,0.0,-999.0,90,0.00,,,0.13,0,Wunderground v.1.15,2013-03-31 10:00:00,
2013-03-31 03:05:00,54.9,52.0,30.04,NNE,23,0.0,-999.0,90,0.00,,,0.13,0,Wunderground v.1.15,2013-03-31 10:05:00,
2013-03-31 03:10:00,54.9,52.0,30.04,NNE,23,0.0,-999.0,90,0.00,,,0.13,0,Wunderground v.1.15,2013-03-31 10:10:00,
2013-03-31 03:15:00,54.9,52.0,30.05,WNW,293,0.0,-999.0,90,0.00,,,0.13,0,Wunderground v.1.15,2013-03-31 10:15:00,
2013-03-31 03:20:00,54.9,52.0,30.05,WNW,293,0.0,-999.0,90,0.00,,,0.13,0,Wunderground v.1.15,2013-03-31 10:20:00,
2013-03-31 03:25:00,54.9,52.0,30.05,WNW,293,0.0,-999.0,90,0.00,,,0.13,0,Wunderground v.1.15,2013-03-31 10:25:00,
2013-03-31 03:30:00,54.9,52.0,30.05,WNW,293,0.0,-999.0,90,0.00,,,0.13,0,Wunderground v.1.15,2013-03-31 10:30:00,
2013-03-31 03:35:00,54.9,52.0,30.05,WNW,293,0.0,-999.0,90,0.00,,,0.13,0,Wunderground v.1.15,2013-03-31 10:35:00,
2013-03-31 03:40:00,54.9,52.0,30.05,WNW,293,0.0,-999.0,90,0.00,,,0.13,0,Wunderground v.1.15,2013-03-31 10:40:00,
2013-03-31 03:45:00,54.5,51.6,30.04,North,0,0.0,-999.0,90,0.00,,,0.13,0,Wunderground v.1.15,2013-03-31 10:45:00,
2013-03-31 03:50:00,54.5,51.6,30.04,North,0,0.0,-999.0,90,0.00,,,0.13,0,Wunderground v.1.15,2013-03-31 10:50:00,
2013-03-31 03:55:00,54.5,51.6,30.04,North,0,0.0,-999.0,90,0.00,,,0.13,0,Wunderground v.1.15,2013-03-31 10:55:00,
2013-03-31 04:00:00,54.5,51.6,30.04,North,0,0.0,-999.0,90,0.00,,,0.13,0,Wunderground v.1.15,2013-03-31 11:00:00,
2013-03-31 04:05:00,54.5,51.6,30.04,North,0,0.0,-999.0,90,0.00,,,0.13,0,Wunderground v.1.15,2013-03-31 11:05:00,
2013-03-31 04:10:00,54.5,51.6,30.04,North,0,0.0,-999.0,90,0.00,,,0.13,0,Wunderground v.1.15,2013-03-31 11:10:00,
2013-03-31 04:15:00,54.2,51.3,30.05,North,0,0.0,-999.0,90,0.00,,,0.13,0,Wunderground v.1.15,2013-03-31 11:15:00,
2013-03-31 04:25:00,54.2,51.3,30.05,North,0,0.0,-999.0,90,0.00,,,0.13,0,Wunderground v.1.15,2013-03-31 11:25:00,
2013-03-31 04:30:00,54.2,51.3,30.05,North,0,0.0,-999.0,90,0.00,,,0.13,0,Wunderground v.1.15,2013-03-31 11:30:00,
2013-03-31 04:35:00,54.2,51.3,30.05,North,0,0.0,-999.0,90,0.00,,,0.13,0,Wunderground v.1.15,2013-03-31 11:35:00,
2013-03-31 04:40:00,54.2,51.3,30.05,North,0,0.0,-999.0,90,0.00,,,0.13,0,Wunderground v.1.15,2013-03-31 11:40:00,
2013-03-31 04:45:00,53.9,51.0,30.05,North,0,0.0,-999.0,90,0.00,,,0.13,0,Wunderground v.1.15,2013-03-31 11:45:00,
2013-03-31 04:50:00,53.9,51.0,30.05,North,0,0.0,-999.0,90,0.00,,,0.13,0,Wunderground v.1.15,2013-03-31 11:50:00,
2013-03-31 04:55:00,53.9,51.0,30.05,North,0,0.0,-999.0,90,0.00,,,0.13,0,Wunderground v.1.15,2013-03-31 11:55:00,
2013-03-31 05:00:00,53.9,51.0,30.05,North,0,0.0,-999.0,90,0.00,,,0.13,0,Wunderground v.1.15,2013-03-31 12:00:00,
2013-03-31 05:05:00,53.9,51.0,30.05,North,0,0.0,-999.0,90,0.00,,,0.13,0,Wunderground v.1.15,2013-03-31 12:05:00,
2013-03-31 05:10:00,53.9,51.0,30.05,North,0,0.0,-999.0,90,0.00,,,0.13,0,Wunderground v.1.15,2013-03-31 12:10:00,
2013-03-31 05:15:00,52.6,49.8,30.05,North,0,0.0,-999.0,90,0.01,,,0.13,0,Wunderground v.1.15,2013-03-31 12:15:00,
2013-03-31 05:20:00,52.6,49.8,30.05,North,0,0.0,-999.0,90,0.01,,,0.13,0,Wunderground v.1.15,2013-03-31 12:20:00,
2013-03-31 05:25:00,52.6,49.8,30.05,North,0,0.0,-999.0,90,0.01,,,0.13,0,Wunderground v.1.15,2013-03-31 12:25:00,
2013-03-31 05:30:00,52.6,49.8,30.05,North,0,0.0,-999.0,90,0.01,,,0.13,0,Wunderground v.1.15,2013-03-31 12:30:00,
2013-03-31 05:35:00,52.6,49.8,30.05,North,0,0.0,-999.0,90,0.01,,,0.13,0,Wunderground v.1.15,2013-03-31 12:35:00,
2013-03-31 05:40:00,52.6,49.8,30.05,North,0,0.0,-999.0,90,0.01,,,0.13,0,Wunderground v.1.15,2013-03-31 12:40:00,
2013-03-31 05:45:00,50.8,48.0,30.06,North,0,0.0,-999.0,90,0.01,,,0.13,0,Wunderground v.1.15,2013-03-31 12:45:00,
2013-03-31 05:50:00,50.8,48.0,30.06,North,0,0.0,-999.0,90,0.01,,,0.13,0,Wunderground v.1.15,2013-03-31 12:50:00,
2013-03-31 05:55:00,50.8,48.0,30.06,North,0,0.0,-999.0,90,0.01,,,0.13,0,Wunderground v.1.15,2013-03-31 12:55:00,
2013-03-31 06:00:00,50.8,48.0,30.06,North,0,0.0,-999.0,90,0.01,,,0.13,0,Wunderground v.1.15,2013-03-31 13:00:00,
2013-03-31 06:05:00,50.8,48.0,30.06,North,0,0.0,-999.0,90,0.01,,,0.13,0,Wunderground v.1.15,2013-03-31 13:05:00,
2013-03-31 06:10:00,50.8,48.0,30.06,North,0,0.0,-999.0,90,0.01,,,0.13,0,Wunderground v.1.15,2013-03-31 13:10:00,
2013-03-31 06:15:00,49.6,46.8,30.07,ENE,68,0.0,-999.0,90,0.00,,,0.13,0,Wunderground v.1.15,2013-03-31 13:15:00,
2013-03-31 06:20:00,49.6,46.8,30.07,ENE,68,0.0,-999.0,90,0.00,,,0.13,0,Wunderground v.1.15,2013-03-31 13:20:00,
2013-03-31 06:25:00,49.6,46.8,30.07,ENE,68,0.0,-999.0,90,0.00,,,0.13,0,Wunderground v.1.15,2013-03-31 13:25:00,
2013-03-31 06:30:00,49.6,46.8,30.07,ENE,68,0.0,-999.0,90,0.00,,,0.13,0,Wunderground v.1.15,2013-03-31 13:30:00,
2013-03-31 06:35:00,49.6,46.8,30.07,ENE,68,0.0,-999.0,90,0.00,,,0.13,0,Wunderground v.1.15,2013-03-31 13:35:00,
2013-03-31 06:40:00,49.6,46.8,30.07,ENE,68,0.0,-999.0,90,0.00,,,0.13,0,Wunderground v.1.15,2013-03-31 13:40:00,
2013-03-31 06:45:00,50.9,48.4,30.07,ENE,68,0.0,-999.0,91,0.00,,,0.13,0,Wunderground v.1.15,2013-03-31 13:45:00,
2013-03-31 06:50:00,50.9,48.4,30.07,ENE,68,0.0,-999.0,91,0.00,,,0.13,0,Wunderground v.1.15,2013-03-31 13:50:00,
2013-03-31 06:55:00,50.9,48.4,30.07,ENE,68,0.0,-999.0,91,0.00,,,0.13,0,Wunderground v.1.15,2013-03-31 13:55:00,
2013-03-31 07:00:00,50.9,48.4,30.07,ENE,68,0.0,-999.0,91,0.00,,,0.13,0,Wunderground v.1.15,2013-03-31 14:00:00,
2013-03-31 07:05:00,50.9,48.4,30.07,ENE,68,0.0,-999.0,91,0.00,,,0.13,0,Wunderground v.1.15,2013-03-31 14:05:00,
2013-03-31 07:10:00,50.9,48.4,30.07,ENE,68,0.0,-999.0,91,0.00,,,0.13,0,Wunderground v.1.15,2013-03-31 14:10:00,
2013-03-31 07:15:00,51.5,49.0,30.08,ENE,68,0.0,-999.0,91,0.00,,,0.13,8,Wunderground v.1.15,2013-03-31 14:15:00,
2013-03-31 07:20:00,51.5,49.0,30.08,ENE,68,0.0,-999.0,91,0.00,,,0.13,8,Wunderground v.1.15,2013-03-31 14:20:00,
2013-03-31 07:25:00,51.5,49.0,30.08,ENE,68,0.0,-999.0,91,0.00,,,0.13,8,Wunderground v.1.15,2013-03-31 14:25:00,
2013-03-31 07:30:00,51.5,49.0,30.08,ENE,68,0.0,-999.0,91,0.00,,,0.13,8,Wunderground v.1.15,2013-03-31 14:30:00,
2013-03-31 07:35:00,51.5,49.0,30.08,ENE,68,0.0,-999.0,91,0.00,,,0.13,8,Wunderground v.1.15,2013-03-31 14:35:00,
2013-03-31 07:40:00,51.5,49.0,30.08,ENE,68,0.0,-999.0,91,0.00,,,0.13,8,Wunderground v.1.15,2013-03-31 14:40:00,
2013-03-31 07:45:00,52.6,50.0,30.08,ENE,68,0.0,-999.0,91,0.00,,,0.13,34,Wunderground v.1.15,2013-03-31 14:45:00,
2013-03-31 07:50:00,52.6,50.0,30.08,ENE,68,0.0,-999.0,91,0.00,,,0.13,34,Wunderground v.1.15,2013-03-31 14:50:00,
2013-03-31 07:55:00,52.6,50.0,30.08,ENE,68,0.0,-999.0,91,0.00,,,0.13,34,Wunderground v.1.15,2013-03-31 14:55:00,
2013-03-31 08:00:00,52.6,50.0,30.08,ENE,68,0.0,-999.0,91,0.00,,,0.13,34,Wunderground v.1.15,2013-03-31 15:00:00,
2013-03-31 08:05:00,52.6,50.0,30.08,ENE,68,0.0,-999.0,91,0.00,,,0.13,34,Wunderground v.1.15,2013-03-31 15:05:00,
2013-03-31 08:10:00,52.6,50.0,30.08,ENE,68,0.0,-999.0,91,0.00,,,0.13,34,Wunderground v.1.15,2013-03-31 15:10:00,
2013-03-31 08:15:00,54.6,52.0,30.09,ENE,68,0.0,-999.0,91,0.00,,,0.13,124,Wunderground v.1.15,2013-03-31 15:15:00,
2013-03-31 08:20:00,54.6,52.0,30.09,ENE,68,0.0,-999.0,91,0.00,,,0.13,124,Wunderground v.1.15,2013-03-31 15:20:00,
2013-03-31 08:25:00,54.6,52.0,30.09,ENE,68,0.0,-999.0,91,0.00,,,0.13,124,Wunderground v.1.15,2013-03-31 15:25:00,
2013-03-31 08:30:00,54.6,52.0,30.09,ENE,68,0.0,-999.0,91,0.00,,,0.13,124,Wunderground v.1.15,2013-03-31 15:30:00,
2013-03-31 08:35:00,54.6,52.0,30.09,ENE,68,0.0,-999.0,91,0.00,,,0.13,124,Wunderground v.1.15,2013-03-31 15:35:00,
2013-03-31 08:40:00,54.6,52.0,30.09,ENE,68,0.0,-999.0,91,0.00,,,0.13,124,Wunderground v.1.15,2013-03-31 15:40:00,
2013-03-31 08:45:00,56.2,53.3,30.09,ENE,68,0.0,-999.0,90,0.00,,,0.13,125,Wunderground v.1.15,2013-03-31 15:45:00,
2013-03-31 08:50:00,56.2,53.3,30.09,ENE,68,0.0,-999.0,90,0.00,,,0.13,125,Wunderground v.1.15,2013-03-31 15:50:00,
2013-03-31 08:55:00,56.2,53.3,30.09,ENE,68,0.0,-999.0,90,0.00,,,0.13,125,Wunderground v.1.15,2013-03-31 15:55:00,
2013-03-31 09:00:00,56.2,53.3,30.09,ENE,68,0.0,-999.0,90,0.00,,,0.13,125,Wunderground v.1.15,2013-03-31 16:00:00,
2013-03-31 09:05:00,56.2,53.3,30.09,ENE,68,0.0,-999.0,90,0.00,,,0.13,125,Wunderground v.1.15,2013-03-31 16:05:00,
2013-03-31 09:10:00,56.2,53.3,30.09,ENE,68,0.0,-999.0,90,0.00,,,0.13,125,Wunderground v.1.15,2013-03-31 16:10:00,
2013-03-31 09:15:00,56.9,53.4,30.09,ESE,113,0.0,-999.0,88,0.00,,,0.13,132,Wunderground v.1.15,2013-03-31 16:15:00,
2013-03-31 09:20:00,56.9,53.4,30.09,ESE,113,0.0,-999.0,88,0.00,,,0.13,132,Wunderground v.1.15,2013-03-31 16:20:00,
2013-03-31 09:25:00,56.9,53.4,30.09,ESE,113,0.0,-999.0,88,0.00,,,0.13,132,Wunderground v.1.15,2013-03-31 16:25:00,
2013-03-31 09:30:00,56.9,53.4,30.09,ESE,113,0.0,-999.0,88,0.00,,,0.13,132,Wunderground v.1.15,2013-03-31 16:30:00,
2013-03-31 09:35:00,56.9,53.4,30.09,ESE,113,0.0,-999.0,88,0.00,,,0.13,132,Wunderground v.1.15,2013-03-31 16:35:00,
2013-03-31 09:40:00,56.9,53.4,30.09,ESE,113,0.0,-999.0,88,0.00,,,0.13,132,Wunderground v.1.15,2013-03-31 16:40:00,
2013-03-31 09:45:00,57.7,53.9,30.09,ESE,113,0.0,-999.0,87,0.00,,,0.13,157,Wunderground v.1.15,2013-03-31 16:45:00,
2013-03-31 09:50:00,57.7,53.9,30.09,ESE,113,0.0,-999.0,87,0.00,,,0.13,157,Wunderground v.1.15,2013-03-31 16:50:00,
2013-03-31 09:55:00,57.7,53.9,30.09,ESE,113,0.0,-999.0,87,0.00,,,0.13,157,Wunderground v.1.15,2013-03-31 16:55:00,
2013-03-31 10:00:00,57.7,53.9,30.09,ESE,113,0.0,-999.0,87,0.00,,,0.13,157,Wunderground v.1.15,2013-03-31 17:00:00,
2013-03-31 10:05:00,57.7,53.9,30.09,ESE,113,0.0,-999.0,87,0.00,,,0.13,157,Wunderground v.1.15,2013-03-31 17:05:00,
2013-03-31 10:10:00,57.7,53.9,30.09,ESE,113,0.0,-999.0,87,0.00,,,0.13,157,Wunderground v.1.15,2013-03-31 17:10:00,
2013-03-31 10:15:00,57.7,53.2,30.10,ENE,68,1.0,-999.0,85,0.00,,,0.13,142,Wunderground v.1.15,2013-03-31 17:15:00,
2013-03-31 10:20:00,57.7,53.2,30.10,ENE,68,1.0,-999.0,85,0.00,,,0.13,142,Wunderground v.1.15,2013-03-31 17:20:00,
2013-03-31 10:25:00,57.7,53.2,30.10,ENE,68,1.0,-999.0,85,0.00,,,0.13,142,Wunderground v.1.15,2013-03-31 17:25:00,
2013-03-31 10:30:00,57.7,53.2,30.10,ENE,68,1.0,-999.0,85,0.00,,,0.13,142,Wunderground v.1.15,2013-03-31 17:30:00,
2013-03-31 10:35:00,57.7,53.2,30.10,ENE,68,1.0,-999.0,85,0.00,,,0.13,142,Wunderground v.1.15,2013-03-31 17:35:00,
2013-03-31 10:40:00,57.7,53.2,30.10,ENE,68,1.0,-999.0,85,0.00,,,0.13,142,Wunderground v.1.15,2013-03-31 17:40:00,
2013-03-31 10:45:00,57.8,54.0,30.10,ENE,68,0.0,-999.0,87,0.04,,,0.13,97,Wunderground v.1.15,2013-03-31 17:45:00,
2013-03-31 10:50:00,57.8,54.0,30.10,ENE,68,0.0,-999.0,87,0.04,,,0.13,97,Wunderground v.1.15,2013-03-31 17:50:00,
2013-03-31 10:55:00,57.8,54.0,30.10,ENE,68,0.0,-999.0,87,0.04,,,0.13,97,Wunderground v.1.15,2013-03-31 17:55:00,
2013-03-31 11:00:00,57.8,54.0,30.10,ENE,68,0.0,-999.0,87,0.04,,,0.13,97,Wunderground v.1.15,2013-03-31 18:00:00,
2013-03-31 11:05:00,57.8,54.0,30.10,ENE,68,0.0,-999.0,87,0.04,,,0.13,97,Wunderground v.1.15,2013-03-31 18:05:00,
2013-03-31 11:10:00,57.8,54.0,30.10,ENE,68,0.0,-999.0,87,0.04,,,0.13,97,Wunderground v.1.15,2013-03-31 18:10:00,
2013-03-31 11:15:00,60.2,56.0,30.09,ENE,68,0.0,-999.0,86,0.05,,,0.13,324,Wunderground v.1.15,2013-03-31 18:15:00,
2013-03-31 11:25:00,60.2,56.0,30.09,ENE,68,0.0,-999.0,86,0.05,,,0.13,324,Wunderground v.1.15,2013-03-31 18:25:00,
2013-03-31 11:30:00,60.2,56.0,30.09,ENE,68,0.0,-999.0,86,0.05,,,0.13,324,Wunderground v.1.15,2013-03-31 18:30:00,
2013-03-31 11:40:00,60.2,56.0,30.09,ENE,68,0.0,-999.0,86,0.05,,,0.13,324,Wunderground v.1.15,2013-03-31 18:40:00,
2013-03-31 11:45:00,62.6,55.3,30.08,ENE,68,0.0,-999.0,77,0.01,,,0.13,481,Wunderground v.1.15,2013-03-31 18:45:00,
2013-03-31 11:55:00,62.6,55.3,30.08,ENE,68,0.0,-999.0,77,0.01,,,0.13,481,Wunderground v.1.15,2013-03-31 18:55:00,
2013-03-31 12:05:00,62.6,55.3,30.08,ENE,68,0.0,-999.0,77,0.01,,,0.13,481,Wunderground v.1.15,2013-03-31 19:05:00,
2013-03-31 12:10:00,62.6,55.3,30.08,ENE,68,0.0,-999.0,77,0.01,,,0.13,481,Wunderground v.1.15,2013-03-31 19:10:00,
2013-03-31 12:20:00,63.1,54.3,30.08,ENE,68,1.0,-999.0,73,0.00,,,0.13,665,Wunderground v.1.15,2013-03-31 19:20:00,
2013-03-31 12:25:00,63.1,54.3,30.08,ENE,68,1.0,-999.0,73,0.00,,,0.13,665,Wunderground v.1.15,2013-03-31 19:25:00,
2013-03-31 12:30:00,63.1,54.3,30.08,ENE,68,1.0,-999.0,73,0.00,,,0.13,665,Wunderground v.1.15,2013-03-31 19:30:00,
2013-03-31 12:35:00,63.1,54.3,30.08,ENE,68,1.0,-999.0,73,0.00,,,0.13,665,Wunderground v.1.15,2013-03-31 19:35:00,
2013-03-31 12:40:00,63.1,54.3,30.08,ENE,68,1.0,-999.0,73,0.00,,,0.13,665,Wunderground v.1.15,2013-03-31 19:40:00,
2013-03-31 12:50:00,63.2,52.5,30.07,ENE,68,1.0,-999.0,68,0.00,,,0.13,344,Wunderground v.1.15,2013-03-31 19:50:00,
2013-03-31 13:10:00,63.2,52.5,30.07,ENE,68,1.0,-999.0,68,0.00,,,0.13,344,Wunderground v.1.15,2013-03-31 20:10:00,
2013-03-31 13:30:00,66.0,53.9,30.05,ENE,68,1.0,-999.0,65,0.00,,,0.13,471,Wunderground v.1.15,2013-03-31 20:30:00,
2013-03-31 13:35:00,66.0,53.9,30.05,ENE,68,1.0,-999.0,65,0.00,,,0.13,471,Wunderground v.1.15,2013-03-31 20:35:00,
2013-03-31 13:40:00,66.0,53.9,30.05,ENE,68,1.0,-999.0,65,0.00,,,0.13,471,Wunderground v.1.15,2013-03-31 20:40:00,
2013-03-31 13:45:00,63.6,51.2,30.04,West,270,2.0,-999.0,64,0.00,,,0.13,257,Wunderground v.1.15,2013-03-31 20:45:00,
2013-03-31 13:50:00,63.6,51.2,30.04,West,270,2.0,-999.0,64,0.00,,,0.13,257,Wunderground v.1.15,2013-03-31 20:50:00,
2013-03-31 13:55:00,63.6,51.2,30.04,West,270,2.0,-999.0,64,0.00,,,0.13,257,Wunderground v.1.15,2013-03-31 20:55:00,
2013-03-31 14:00:00,63.6,51.2,30.04,West,270,2.0,-999.0,64,0.00,,,0.13,257,Wunderground v.1.15,2013-03-31 21:00:00,
2013-03-31 14:05:00,63.6,51.2,30.04,West,270,2.0,-999.0,64,0.00,,,0.13,257,Wunderground v.1.15,2013-03-31 21:05:00,
2013-03-31 14:10:00,63.6,51.2,30.04,West,270,2.0,-999.0,64,0.00,,,0.13,257,Wunderground v.1.15,2013-03-31 21:10:00,
2013-03-31 14:30:00,61.7,55.1,30.03,WNW,293,1.0,-999.0,79,0.00,,,0.13,157,Wunderground v.1.15,2013-03-31 21:30:00,
2013-03-31 14:40:00,61.7,55.1,30.03,WNW,293,1.0,-999.0,79,0.00,,,0.13,157,Wunderground v.1.15,2013-03-31 21:40:00,
2013-03-31 14:55:00,65.0,52.1,30.02,WNW,293,1.0,-999.0,63,0.00,,,0.13,570,Wunderground v.1.15,2013-03-31 21:55:00,
2013-03-31 15:00:00,65.0,52.1,30.02,WNW,293,1.0,-999.0,63,0.00,,,0.13,570,Wunderground v.1.15,2013-03-31 22:00:00,
2013-03-31 15:10:00,65.0,52.1,30.02,WNW,293,1.0,-999.0,63,0.00,,,0.13,570,Wunderground v.1.15,2013-03-31 22:10:00,
2013-03-31 15:15:00,65.9,54.6,30.02,ENE,68,1.0,-999.0,67,0.00,,,0.13,311,Wunderground v.1.15,2013-03-31 22:15:00,
2013-03-31 15:40:00,65.9,54.6,30.02,ENE,68,1.0,-999.0,67,0.00,,,0.13,311,Wunderground v.1.15,2013-03-31 22:40:00,
2013-03-31 15:45:00,61.6,53.6,30.03,West,270,4.0,-999.0,75,0.00,,,0.13,201,Wunderground v.1.15,2013-03-31 22:45:00,
2013-03-31 16:05:00,61.6,53.6,30.03,West,270,4.0,-999.0,75,0.00,,,0.13,201,Wunderground v.1.15,2013-03-31 23:05:00,
2013-03-31 16:15:00,57.8,53.6,30.03,East,90,2.0,-999.0,86,0.04,,,0.13,91,Wunderground v.1.15,2013-03-31 23:15:00,
2013-03-31 16:20:00,57.8,53.6,30.03,East,90,2.0,-999.0,86,0.04,,,0.13,91,Wunderground v.1.15,2013-03-31 23:20:00,
2013-03-31 16:25:00,57.8,53.6,30.03,East,90,2.0,-999.0,86,0.04,,,0.13,91,Wunderground v.1.15,2013-03-31 23:25:00,
2013-03-31 16:30:00,57.8,53.6,30.03,East,90,2.0,-999.0,86,0.04,,,0.13,91,Wunderground v.1.15,2013-03-31 23:30:00,
2013-03-31 16:40:00,57.8,53.6,30.03,East,90,2.0,-999.0,86,0.04,,,0.13,91,Wunderground v.1.15,2013-03-31 23:40:00,
2013-03-31 16:45:00,60.9,55.7,30.03,East,90,1.0,-999.0,83,0.04,,,0.13,251,Wunderground v.1.15,2013-03-31 23:45:00,
2013-03-31 16:50:00,60.9,55.7,30.03,East,90,1.0,-999.0,83,0.04,,,0.13,251,Wunderground v.1.15,2013-03-31 23:50:00,
2013-03-31 16:55:00,60.9,55.7,30.03,East,90,1.0,-999.0,83,0.04,,,0.13,251,Wunderground v.1.15,2013-03-31 23:55:00,
2013-03-31 17:00:00,60.9,55.7,30.03,East,90,1.0,-999.0,83,0.04,,,0.13,251,Wunderground v.1.15,2013-04-01 00:00:00,
2013-03-31 17:05:00,60.9,55.7,30.03,East,90,1.0,-999.0,83,0.04,,,0.13,251,Wunderground v.1.15,2013-04-01 00:05:00,
2013-03-31 17:10:00,60.9,55.7,30.03,East,90,1.0,-999.0,83,0.04,,,0.13,251,Wunderground v.1.15,2013-04-01 00:10:00,
2013-03-31 17:15:00,60.9,54.7,30.02,ENE,68,1.0,-999.0,80,0.00,,,0.13,279,Wunderground v.1.15,2013-04-01 00:15:00,
2013-03-31 17:20:00,60.9,54.7,30.02,ENE,68,1.0,-999.0,80,0.00,,,0.13,279,Wunderground v.1.15,2013-04-01 00:20:00,
2013-03-31 17:25:00,60.9,54.7,30.02,ENE,68,1.0,-999.0,80,0.00,,,0.13,279,Wunderground v.1.15,2013-04-01 00:25:00,
2013-03-31 17:30:00,60.9,54.7,30.02,ENE,68,1.0,-999.0,80,0.00,,,0.13,279,Wunderground v.1.15,2013-04-01 00:30:00,
2013-03-31 17:35:00,60.9,54.7,30.02,ENE,68,1.0,-999.0,80,0.00,,,0.13,279,Wunderground v.1.15,2013-04-01 00:35:00,
2013-03-31 17:40:00,60.9,54.7,30.02,ENE,68,1.0,-999.0,80,0.00,,,0.13,279,Wunderground v.1.15,2013-04-01 00:40:00,
2013-03-31 17:45:00,61.9,54.2,30.02,NW,315,1.0,-999.0,76,0.00,,,0.13,308,Wunderground v.1.15,2013-04-01 00:45:00,
2013-03-31 17:50:00,61.9,54.2,30.02,NW,315,1.0,-999.0,76,0.00,,,0.13,308,Wunderground v.1.15,2013-04-01 00:50:00,
2013-03-31 17:55:00,61.9,54.2,30.02,NW,315,1.0,-999.0,76,0.00,,,0.13,308,Wunderground v.1.15,2013-04-01 00:55:00,
2013-03-31 18:05:00,61.9,54.2,30.02,NW,315,1.0,-999.0,76,0.00,,,0.13,308,Wunderground v.1.15,2013-04-01 01:05:00,
2013-03-31 18:15:00,60.1,52.5,30.03,West,270,1.0,-999.0,76,0.00,,,0.13,152,Wunderground v.1.15,2013-04-01 01:15:00,
2013-03-31 18:20:00,60.1,52.5,30.03,West,270,1.0,-999.0,76,0.00,,,0.13,152,Wunderground v.1.15,2013-04-01 01:20:00,
2013-03-31 18:25:00,60.1,52.5,30.03,West,270,1.0,-999.0,76,0.00,,,0.13,152,Wunderground v.1.15,2013-04-01 01:25:00,
2013-03-31 18:30:00,60.1,52.5,30.03,West,270,1.0,-999.0,76,0.00,,,0.13,152,Wunderground v.1.15,2013-04-01 01:30:00,
2013-03-31 18:35:00,60.1,52.5,30.03,West,270,1.0,-999.0,76,0.00,,,0.13,152,Wunderground v.1.15,2013-04-01 01:35:00,
2013-03-31 18:40:00,60.1,52.5,30.03,West,270,1.0,-999.0,76,0.00,,,0.13,152,Wunderground v.1.15,2013-04-01 01:40:00,
2013-03-31 18:45:00,58.9,52.1,30.04,West,270,1.0,-999.0,78,0.00,,,0.13,56,Wunderground v.1.15,2013-04-01 01:45:00,
2013-03-31 18:50:00,58.9,52.1,30.04,West,270,1.0,-999.0,78,0.00,,,0.13,56,Wunderground v.1.15,2013-04-01 01:50:00,
2013-03-31 18:55:00,58.9,52.1,30.04,West,270,1.0,-999.0,78,0.00,,,0.13,56,Wunderground v.1.15,2013-04-01 01:55:00,
2013-03-31 19:00:00,58.9,52.1,30.04,West,270,1.0,-999.0,78,0.00,,,0.13,56,Wunderground v.1.15,2013-04-01 02:00:00,
2013-03-31 19:05:00,58.9,52.1,30.04,West,270,1.0,-999.0,78,0.00,,,0.13,56,Wunderground v.1.15,2013-04-01 02:05:00,
2013-03-31 19:10:00,58.9,52.1,30.04,West,270,1.0,-999.0,78,0.00,,,0.13,56,Wunderground v.1.15,2013-04-01 02:10:00,
2013-03-31 19:15:00,56.1,51.7,30.03,WNW,293,1.0,-999.0,85,0.00,,,0.13,18,Wunderground v.1.15,2013-04-01 02:15:00,
2013-03-31 19:20:00,56.1,51.7,30.03,WNW,293,1.0,-999.0,85,0.00,,,0.13,18,Wunderground v.1.15,2013-04-01 02:20:00,
2013-03-31 19:25:00,56.1,51.7,30.03,WNW,293,1.0,-999.0,85,0.00,,,0.13,18,Wunderground v.1.15,2013-04-01 02:25:00,
2013-03-31 19:30:00,56.1,51.7,30.03,WNW,293,1.0,-999.0,85,0.00,,,0.13,18,Wunderground v.1.15,2013-04-01 02:30:00,
2013-03-31 19:35:00,56.1,51.7,30.03,WNW,293,1.0,-999.0,85,0.00,,,0.13,18,Wunderground v.1.15,2013-04-01 02:35:00,
2013-03-31 19:40:00,56.1,51.7,30.03,WNW,293,1.0,-999.0,85,0.00,,,0.13,18,Wunderground v.1.15,2013-04-01 02:40:00,
2013-03-31 19:45:00,53.5,49.7,30.03,East,90,1.0,-999.0,87,0.00,,,0.13,0,Wunderground v.1.15,2013-04-01 02:45:00,
2013-03-31 19:50:00,53.5,49.7,30.03,East,90,1.0,-999.0,87,0.00,,,0.13,0,Wunderground v.1.15,2013-04-01 02:50:00,
2013-03-31 19:55:00,53.5,49.7,30.03,East,90,1.0,-999.0,87,0.00,,,0.13,0,Wunderground v.1.15,2013-04-01 02:55:00,
2013-03-31 20:00:00,53.5,49.7,30.03,East,90,1.0,-999.0,87,0.00,,,0.13,0,Wunderground v.1.15,2013-04-01 03:00:00,
2013-03-31 20:05:00,53.5,49.7,30.03,East,90,1.0,-999.0,87,0.00,,,0.13,0,Wunderground v.1.15,2013-04-01 03:05:00,
2013-03-31 20:10:00,53.5,49.7,30.03,East,90,1.0,-999.0,87,0.00,,,0.13,0,Wunderground v.1.15,2013-04-01 03:10:00,
2013-03-31 20:15:00,53.2,49.7,30.04,East,90,0.0,-999.0,88,0.00,,,0.13,0,Wunderground v.1.15,2013-04-01 03:15:00,
2013-03-31 20:20:00,53.2,49.7,30.04,East,90,0.0,-999.0,88,0.00,,,0.13,0,Wunderground v.1.15,2013-04-01 03:20:00,
2013-03-31 20:25:00,53.2,49.7,30.04,East,90,0.0,-999.0,88,0.00,,,0.13,0,Wunderground v.1.15,2013-04-01 03:25:00,
2013-03-31 20:30:00,53.2,49.7,30.04,East,90,0.0,-999.0,88,0.00,,,0.13,0,Wunderground v.1.15,2013-04-01 03:30:00,
2013-03-31 20:35:00,53.2,49.7,30.04,East,90,0.0,-999.0,88,0.00,,,0.13,0,Wunderground v.1.15,2013-04-01 03:35:00,
2013-03-31 20:40:00,53.2,49.7,30.04,East,90,0.0,-999.0,88,0.00,,,0.13,0,Wunderground v.1.15,2013-04-01 03:40:00,
2013-03-31 20:45:00,53.1,49.6,30.05,East,90,0.0,-999.0,88,0.00,,,0.13,0,Wunderground v.1.15,2013-04-01 03:45:00,
2013-03-31 20:50:00,53.1,49.6,30.05,East,90,0.0,-999.0,88,0.00,,,0.13,0,Wunderground v.1.15,2013-04-01 03:50:00,
2013-03-31 20:55:00,53.1,49.6,30.05,East,90,0.0,-999.0,88,0.00,,,0.13,0,Wunderground v.1.15,2013-04-01 03:55:00,
2013-03-31 21:00:00,53.1,49.6,30.05,East,90,0.0,-999.0,88,0.00,,,0.13,0,Wunderground v.1.15,2013-04-01 04:00:00,
2013-03-31 21:05:00,53.1,49.6,30.05,East,90,0.0,-999.0,88,0.00,,,0.13,0,Wunderground v.1.15,2013-04-01 04:05:00,
2013-03-31 21:10:00,53.1,49.6,30.05,East,90,0.0,-999.0,88,0.00,,,0.13,0,Wunderground v.1.15,2013-04-01 04:10:00,
2013-03-31 21:15:00,53.3,50.1,30.06,ENE,68,0.0,-999.0,89,0.00,,,0.13,0,Wunderground v.1.15,2013-04-01 04:15:00,
2013-03-31 21:20:00,53.3,50.1,30.06,ENE,68,0.0,-999.0,89,0.00,,,0.13,0,Wunderground v.1.15,2013-04-01 04:20:00,
2013-03-31 21:25:00,53.3,50.1,30.06,ENE,68,0.0,-999.0,89,0.00,,,0.13,0,Wunderground v.1.15,2013-04-01 04:25:00,
2013-03-31 21:30:00,53.3,50.1,30.06,ENE,68,0.0,-999.0,89,0.00,,,0.13,0,Wunderground v.1.15,2013-04-01 04:30:00,
2013-03-31 21:35:00,53.3,50.1,30.06,ENE,68,0.0,-999.0,89,0.00,,,0.13,0,Wunderground v.1.15,2013-04-01 04:35:00,
2013-03-31 21:40:00,53.3,50.1,30.06,ENE,68,0.0,-999.0,89,0.00,,,0.13,0,Wunderground v.1.15,2013-04-01 04:40:00,
2013-03-31 21:45:00,52.4,49.3,30.07,ENE,68,0.0,-999.0,89,0.00,,,0.13,0,Wunderground v.1.15,2013-04-01 04:45:00,
2013-03-31 21:50:00,52.4,49.3,30.07,ENE,68,0.0,-999.0,89,0.00,,,0.13,0,Wunderground v.1.15,2013-04-01 04:50:00,
2013-03-31 21:55:00,52.4,49.3,30.07,ENE,68,0.0,-999.0,89,0.00,,,0.13,0,Wunderground v.1.15,2013-04-01 04:55:00,
2013-03-31 22:00:00,52.4,49.3,30.07,ENE,68,0.0,-999.0,89,0.00,,,0.13,0,Wunderground v.1.15,2013-04-01 05:00:00,
2013-03-31 22:05:00,52.4,49.3,30.07,ENE,68,0.0,-999.0,89,0.00,,,0.13,0,Wunderground v.1.15,2013-04-01 05:05:00,
2013-03-31 22:10:00,52.4,49.3,30.07,ENE,68,0.0,-999.0,89,0.00,,,0.13,0,Wunderground v.1.15,2013-04-01 05:10:00,
2013-03-31 22:15:00,52.4,49.3,30.07,ENE,68,0.0,-999.0,89,0.00,,,0.13,0,Wunderground v.1.15,2013-04-01 05:15:00,
2013-03-31 22:20:00,52.4,49.3,30.07,ENE,68,0.0,-999.0,89,0.00,,,0.13,0,Wunderground v.1.15,2013-04-01 05:20:00,
2013-03-31 22:25:00,52.4,49.3,30.07,ENE,68,0.0,-999.0,89,0.00,,,0.13,0,Wunderground v.1.15,2013-04-01 05:25:00,
2013-03-31 22:30:00,52.4,49.3,30.07,ENE,68,0.0,-999.0,89,0.00,,,0.13,0,Wunderground v.1.15,2013-04-01 05:30:00,
2013-03-31 22:35:00,52.4,49.3,30.07,ENE,68,0.0,-999.0,89,0.00,,,0.13,0,Wunderground v.1.15,2013-04-01 05:35:00,
2013-03-31 22:40:00,52.4,49.3,30.07,ENE,68,0.0,-999.0,89,0.00,,,0.13,0,Wunderground v.1.15,2013-04-01 05:40:00,
2013-03-31 22:45:00,52.4,49.3,30.07,ENE,68,0.0,-999.0,89,0.00,,,0.13,0,Wunderground v.1.15,2013-04-01 05:45:00,
2013-03-31 22:50:00,52.4,49.3,30.07,ENE,68,0.0,-999.0,89,0.00,,,0.13,0,Wunderground v.1.15,2013-04-01 05:50:00,
2013-03-31 22:55:00,52.4,49.3,30.07,ENE,68,0.0,-999.0,89,0.00,,,0.13,0,Wunderground v.1.15,2013-04-01 05:55:00,
2013-03-31 23:00:00,52.4,49.3,30.07,ENE,68,0.0,-999.0,89,0.00,,,0.13,0,Wunderground v.1.15,2013-04-01 06:00:00,
2013-03-31 23:05:00,52.4,49.3,30.07,ENE,68,0.0,-999.0,89,0.00,,,0.13,0,Wunderground v.1.15,2013-04-01 06:05:00,
2013-03-31 23:10:00,52.4,49.3,30.07,ENE,68,0.0,-999.0,89,0.00,,,0.13,0,Wunderground v.1.15,2013-04-01 06:10:00,
2013-03-31 23:15:00,52.1,49.3,30.07,ENE,68,0.0,-999.0,90,0.00,,,0.13,0,Wunderground v.1.15,2013-04-01 06:15:00,
2013-03-31 23:20:00,52.1,49.3,30.07,ENE,68,0.0,-999.0,90,0.00,,,0.13,0,Wunderground v.1.15,2013-04-01 06:20:00,
2013-03-31 23:25:00,52.1,49.3,30.07,ENE,68,0.0,-999.0,90,0.00,,,0.13,0,Wunderground v.1.15,2013-04-01 06:25:00,
2013-03-31 23:30:00,52.1,49.3,30.07,ENE,68,0.0,-999.0,90,0.00,,,0.13,0,Wunderground v.1.15,2013-04-01 06:30:00,
2013-03-31 23:35:00,52.1,49.3,30.07,ENE,68,0.0,-999.0,90,0.00,,,0.13,0,Wunderground v.1.15,2013-04-01 06:35:00,
2013-03-31 23:40:00,52.1,49.3,30.07,ENE,68,0.0,-999.0,90,0.00,,,0.13,0,Wunderground v.1.15,2013-04-01 06:40:00,
2013-03-31 23:45:00,51.1,48.3,30.07,N/A,-737280,0.0,-999.0,90,0.00,,,0.13,0,Wunderground v.1.15,2013-04-01 06:45:00,
2013-03-31 23:50:00,51.1,48.3,30.07,N/A,-737280,0.0,-999.0,90,0.00,,,0.13,0,Wunderground v.1.15,2013-04-01 06:50:00,
2013-03-31 23:55:00,51.1,48.3,30.07,N/A,-737280,0.0,-999.0,90,0.00,,,0.13,0,Wunderground v.1.15,2013-04-01 06:55:00,